CZ-6A DEB, 55212

Orbit data source: Space-Track

CZ-6A DEB, 55212 is space debris in SSO originally from a launch on Fri, 11 Nov 2022 UTC launched from the Taiyaun Space Center, China (TSC). Debris objects in space refer to the collection of defunct objects orbiting the Earth. Examples of debris include non-operational satellites, rocket bodies, and fragments generated from explosions, collisions, or faulty payload assembly.

Loading next visibility...
Identifier
55212, 2022-151WD
Orbit
SSO
Country
Flag of CNCN / PRC
Related business
Manufacturer
SAST
Mission
Spacecraft
Bus & Motor
Unknown
Mass
Unknown
Launch date (UTC)
2022-11-11 (3 years ago)
Launch vehicle
Unknown
Launch site
Taiyaun Space Center, China (TSC)
Object type
Payload
Rocket body
Debris
Shape & HBR
Unknown shape, 0.1 m
Radar Cross Section
Small (<0.1 m²)

Expand to show TLE details & history
Last TLE update: 1 day ago

TLE from 1 day ago
0 CZ-6A DEB
1 55212U 22151WD  25349.62767932  .00024794  00000-0  27081-2 0  9997
2 55212  98.6533  51.5814 0044182 105.8767 254.7323 14.87152237158536
Epoch: 2025-12-15T15:03Z
TLE epoch observation values (Epoch: 2025-12-15T15:03:51.493Z)
Latitude
0.00002°
Longitude
101.09332°
Altitude
618.101 km
Speed
7.545 km/s
True Right ascension
03h 26m 19s
True Declination
0° 00' 00"
Sunlit
Object was in full shadow at epoch
Visualization orbit readout
Latitude
Unknown
Longitude
Unknown
Altitude
Unknown
Speed
Unknown
Apparent Right ascension
Unknown
Apparent Declination
Unknown
Sunlit
N/A
Visualization observer readout
Local Sidereal Time
15:54:02
Azimuth
Unknown
Elevation
Unknown
Doppler factor
Unknown
Orbital elements
Apogee altitude
634.753 km
Perigee altitude
573.057 km
Semi-major axis
6,982.042 km
Eccentricity
0.00442
Inclination
98.6533°
RAAN
51.5814°
Arg. of periapsis
105.8767°
True anomaly
254.2446°
Mean anomaly
254.7323°
Eccentric anomaly
254.48838°
Mean motion
3.72023 °/min
Orbital period
96.77 mins
BSTAR
0.0027081
Loading maneuver chart data...
Computing Atmospheric mass density...
Loading historical data...
Loading historical data...
Loading historical data...
Loading historical data...
Loading historical data...
Loading historical data...
Loading historical data...

Documentation

Showing up to 5 results
|